This demonstration page uses our WeatherBlox Daily Observations layout. Learn more.

Left ArrowRight Arrow

Hourly Observations for May 23, 2021

Temp ( °F °C ) Dew Point ( °F °C ) Humidity (%) Winds ( mph kmh ) Pressure ( in mb ) Visibility ( mi km ) Precip ( " mm )
12:15 am 00:15 Mostly Cloudy 67 19.3 65 18.2 93 93 SSE 13 20 30.08 1019 10 16 N/A
12:35 am 00:35 Cloudy 67 19.6 65 18.5 93 93 S 12 19 30.10 1019 10 16 N/A
12:55 am 00:55 Cloudy 67 19.7 65 18.5 93 93 S 12 19 30.11 1020 10 16 N/A
1:15 am 01:15 Cloudy 67 19.7 65 18.5 93 93 S 13 20 30.11 1020 10 16 N/A
1:35 am 01:35 Cloudy 68 19.9 65 18.6 92 92 S 14 22 30.11 1020 10 16 N/A
1:55 am 01:55 Mostly Cloudy 67 19.6 65 18.3 92 92 SSE 12 19 30.09 1019 10 16 N/A
2:15 am 02:15 Mostly Cloudy 67 19.6 65 18.5 93 93 S 12 19 30.10 1019 10 16 N/A
2:35 am 02:35 Mostly Cloudy 67 19.3 65 18.1 93 93 S 10 17 30.09 1019 10 16 N/A
2:55 am 02:55 Mostly Cloudy 66 19.1 65 18.1 94 94 S 8 13 30.09 1019 10 16 N/A
3:15 am 03:15 Cloudy 66 19 64 18 94 94 S 7 11 30.10 1019 7 11 N/A
3:35 am 03:35 Cloudy 66 18.7 64 18 96 96 SSE 8 13 30.10 1019 7 11 N/A
3:55 am 03:55 Cloudy 66 18.8 64 18 95 95 SSE 7 11 30.09 1019 7 11 N/A
4:15 am 04:15 Cloudy 65 18.5 64 17.7 95 95 SSE 5 7 30.09 1019 7 11 N/A
4:35 am 04:35 Cloudy with Mist and Fog 65 18.2 64 17.5 96 96 SE 5 7 30.09 1019 5 8 N/A
4:55 am 04:55 Cloudy with Mist and Fog 64 18 64 17.5 97 97 SE 5 7 30.08 1019 4 6 N/A
5:15 am 05:15 Cloudy with Mist and Fog 65 18.5 64 18 97 97 SE 7 11 30.07 1018 5 8 N/A
5:35 am 05:35 Cloudy with Mist and Fog 65 18.3 64 17.7 96 96 SSE 5 7 30.08 1019 5 8 N/A
5:55 am 05:55 Cloudy with Mist and Fog 64 18 64 17.5 97 97 SE 6 9 30.08 1019 4 6 N/A
6:15 am 06:15 Cloudy with Mist and Fog 65 18.1 64 17.6 97 97 SE 8 13 30.07 1018 4 6 N/A
6:35 am 06:35 Cloudy with Mist and Fog 65 18.4 64 17.9 97 97 SSE 8 13 30.07 1018 3 5 N/A
6:55 am 06:55 Cloudy with Mist and Fog 66 18.7 65 18.1 96 96 S 14 22 30.08 1019 5 8 N/A
7:15 am 07:15 Cloudy with Mist and Fog 66 18.8 65 18.1 96 96 S 15 24 30.08 1019 5 8 N/A
7:35 am 07:35 Cloudy 66 19.1 65 18.2 95 95 S 20 31 30.07 1018 7 11 N/A
7:55 am 07:55 Mostly Cloudy 67 19.5 65 18.2 92 92 S 21 33 30.07 1018 10 16 N/A
8:15 am 08:15 Cloudy 67 19.7 64 18 90 90 S 18 30 30.08 1019 10 16 N/A
8:35 am 08:35 Cloudy 68 20.1 64 17.7 86 86 S 15 24 30.07 1018 10 16 N/A
8:55 am 08:55 Mostly Cloudy 69 20.6 64 17.6 83 83 S 16 26 30.07 1018 10 16 N/A
9:15 am 09:15 Mostly Cloudy 71 21.5 63 17.4 78 78 S 17 28 30.06 1018 10 16 N/A
9:35 am 09:35 Partly Cloudy 72 22.1 62 16.7 72 72 S 17 28 30.06 1018 10 16 N/A
9:55 am 09:55 Partly Cloudy 73 22.7 62 16.9 70 70 S 20 31 30.05 1018 10 16 N/A
10:15 am 10:15 Mostly Cloudy 72 22.4 62 16.6 70 70 S 15 24 30.05 1018 10 16 N/A
10:35 am 10:35 Cloudy 73 22.5 62 16.8 70 70 S 17 28 30.04 1017 10 16 N/A
10:55 am 10:55 Cloudy 74 23.4 62 16.5 65 65 S 20 31 30.03 1017 10 16 N/A
11:15 am 11:15 Cloudy 74 23.2 62 16.9 68 68 SSW 20 31 30.03 1017 10 16 N/A
11:35 am 11:35 Mostly Cloudy 75 24 63 17.1 65 65 SSW 14 22 30.01 1016 10 16 N/A
11:55 am 11:55 Mostly Cloudy 76 24.3 63 17 64 64 SSW 18 30 30.00 1016 10 16 N/A
12:15 pm 12:15 Cloudy 75 23.9 62 16.7 64 64 S 17 28 30.00 1016 10 16 N/A
12:35 pm 12:35 Mostly Cloudy 77 25 62 16.7 60 60 S 18 30 29.99 1015 10 16 N/A
12:55 pm 12:55 Mostly Cloudy 78 25.5 62 16.7 58 58 S 17 28 29.96 1015 10 16 N/A
1:15 pm 13:15 Partly Cloudy 78 25.7 62 16.8 58 58 S 18 30 29.95 1014 10 16 N/A
1:35 pm 13:35 Mostly Cloudy 79 26 62 16.7 57 57 S 20 31 29.94 1014 10 16 N/A
1:55 pm 13:55 Mostly Cloudy 79 26 62 16.9 57 57 S 21 33 29.94 1014 10 16 N/A
2:15 pm 14:15 Mostly Cloudy 80 26.4 62 16.8 56 56 S 18 30 29.93 1013 10 16 N/A
2:35 pm 14:35 Mostly Cloudy 79 26.1 62 16.9 57 57 SSE 20 31 29.92 1013 10 16 N/A
2:55 pm 14:55 Cloudy 80 26.5 62 16.7 55 55 S 17 28 29.90 1013 10 16 N/A
3:15 pm 15:15 Cloudy 80 26.6 63 17 56 56 S 16 26 29.90 1013 10 16 N/A
3:35 pm 15:35 Cloudy 80 26.6 62 16.6 54 54 SSE 20 31 29.88 1012 10 16 N/A
3:55 pm 15:55 Cloudy 81 27 62 16.4 52 52 S 23 37 29.88 1012 10 16 N/A
4:15 pm 16:15 Cloudy 80 26.5 62 16.7 55 55 S 21 33 29.87 1012 10 16 N/A
4:35 pm 16:35 Cloudy 80 26.4 62 16.5 55 55 SSE 20 31 29.87 1011 10 16 N/A
4:55 pm 16:55 Cloudy 80 26.6 62 16.9 55 55 S 25 41 29.86 1011 10 16 N/A
5:15 pm 17:15 Mostly Cloudy 80 26.4 62 16.7 55 55 S 24 39 29.86 1011 10 16 N/A
5:35 pm 17:35 Mostly Cloudy 80 26.5 63 17.3 57 57 SSE 24 39 29.85 1011 10 16 N/A
5:55 pm 17:55 Cloudy 78 25.6 64 17.5 61 61 S 23 37 29.86 1011 10 16 N/A
6:15 pm 18:15 Cloudy 77 25.1 63 17.1 61 61 S 23 37 29.87 1011 10 16 N/A
6:35 pm 18:35 Cloudy 76 24.3 63 17.2 65 65 S 28 44 29.86 1011 10 16 N/A
6:55 pm 18:55 Cloudy 76 24.4 64 17.6 66 66 SSE 22 35 29.85 1011 10 16 N/A
7:15 pm 19:15 Cloudy 75 24 64 17.5 67 67 SSE 24 39 29.85 1011 10 16 N/A
7:35 pm 19:35 Cloudy 74 23.6 64 17.6 69 69 SSE 23 37 29.85 1011 10 16 N/A
7:55 pm 19:55 Cloudy 72 22.2 65 18.2 78 78 SSE 22 35 29.86 1011 10 16 N/A
8:15 pm 20:15 Mostly Cloudy 72 22.1 65 18.3 79 79 SSE 21 33 29.86 1011 10 16 N/A
8:35 pm 20:35 Mostly Cloudy 72 22.1 64 18 78 78 SSE 24 39 29.87 1012 10 16 N/A
8:55 pm 20:55 Cloudy 71 21.6 64 17.8 79 79 SSE 20 31 29.86 1011 10 16 N/A
9:15 pm 21:15 Cloudy 71 21.5 64 18 81 81 SSE 22 35 29.86 1011 10 16 N/A
9:35 pm 21:35 Cloudy 70 21.3 64 17.8 81 81 SSE 18 30 29.85 1011 10 16 N/A
9:55 pm 21:55 Cloudy 70 21.3 64 17.8 81 81 SSE 20 31 29.87 1011 10 16 N/A
10:15 pm 22:15 Cloudy 70 21.2 64 17.8 81 81 S 18 30 29.88 1012 10 16 N/A
10:35 pm 22:35 Cloudy 70 21.2 64 17.8 81 81 S 24 39 29.91 1013 10 16 N/A
10:55 pm 22:55 Cloudy 70 21.3 64 17.7 80 80 S 17 28 29.92 1013 10 16 N/A
11:15 pm 23:15 Cloudy 70 21.2 64 17.8 81 81 S 16 26 29.92 1013 10 16 N/A
11:35 pm 23:35 Cloudy 70 21 64 17.8 82 82 S 15 24 29.93 1014 10 16 N/A
11:55 pm 23:55 Cloudy 69 20.8 64 17.7 83 83 S 21 33 29.93 1014 10 16 N/A

Powered by AerisWeather